When you browse on this site, cookies collect data to enhance your experience and personalize the content and advertising you see.
Visit our Privacy Policy to learn more. By continuing to use the site, you agree to this use of cookies and data.
  • In Hungary
  • List of Countries
  • For 7 days
  • Water Temperature
  • Weather Map
  • News
  • Weather Widgets
  • user-avatar
    Login

    Hourly Weather Sotino

    Today, 19 September, Thursday

    Time Temperature Precipitation Wind Pressure Humidity
    00:00 +4°C° 0 mm 3 mps 735 mmHg 97%
    01:00 +4°C° 0 mm 3 mps 735 mmHg 97%
    02:00 +4°C° 0 mm 3 mps 736 mmHg 96%
    03:00 +4°C° 0 mm 3 mps 736 mmHg 95%
    04:00 +4°C° 0 mm 3 mps 737 mmHg 94%
    05:00 +4°C° 0 mm 3 mps 737 mmHg 92%
    06:00 +4°C° 0.1 mm 3 mps 738 mmHg 90%
    07:00 +4°C° 0.1 mm 3 mps 738 mmHg 88%
    08:00 +5°C° 0.1 mm 3 mps 739 mmHg 86%
    09:00 +5°C° 0.2 mm 3 mps 739 mmHg 84%
    10:00 +5°C° 0.2 mm 3 mps 740 mmHg 83%
    11:00 +7°C° 0.2 mm 3 mps 740 mmHg 81%
    12:00 +7°C° 0.2 mm 3 mps 740 mmHg 77%
    13:00 +8°C° 0.2 mm 3 mps 741 mmHg 74%
    14:00 +8°C° 0.2 mm 3 mps 741 mmHg 70%
    15:00 +8°C° 0.1 mm 2 mps 741 mmHg 73%
    16:00 +7°C° 0.1 mm 2 mps 741 mmHg 76%
    17:00 +7°C° 0.1 mm 2 mps 742 mmHg 78%
    18:00 +7°C° 0 mm 1 mps 742 mmHg 81%
    19:00 +6°C° 0 mm 1 mps 742 mmHg 84%
    20:00 +5°C° 0 mm 1 mps 742 mmHg 87%
    21:00 +5°C° 0 mm 1 mps 742 mmHg 89%
    22:00 +4°C° 0 mm 1 mps 742 mmHg 90%
    23:00 +4°C° 0 mm 1 mps 742 mmHg 91%

    Tomorrow, 20 September, Friday

    Time Temperature Precipitation Wind Pressure Humidity
    00:00 +4°C° 0 mm 1 mps 743 mmHg 92%
    01:00 +3°C° 0 mm 1 mps 743 mmHg 92%
    02:00 +3°C° 0 mm 1 mps 743 mmHg 93%
    03:00 +3°C° 0 mm 1 mps 743 mmHg 93%
    04:00 +2°C° 0 mm 1 mps 743 mmHg 94%
    05:00 +2°C° 0 mm 1 mps 742 mmHg 94%
    06:00 +3°C° 0 mm 1 mps 743 mmHg 90%
    07:00 +5°C° 0 mm 1 mps 743 mmHg 85%
    08:00 +6°C° 0 mm 1 mps 743 mmHg 81%
    09:00 +7°C° 0 mm 1 mps 743 mmHg 74%
    10:00 +8°C° 0 mm 1 mps 743 mmHg 68%
    11:00 +9°C° 0 mm 2 mps 743 mmHg 61%
    12:00 +9°C° 0.2 mm 2 mps 743 mmHg 63%
    13:00 +8°C° 0.2 mm 2 mps 743 mmHg 64%
    14:00 +8°C° 0.2 mm 3 mps 743 mmHg 65%
    15:00 +8°C° 0.1 mm 2 mps 743 mmHg 71%
    16:00 +7°C° 0.1 mm 2 mps 743 mmHg 77%
    17:00 +6°C° 0.1 mm 2 mps 743 mmHg 83%
    18:00 +5°C° 0 mm 2 mps 743 mmHg 88%
    19:00 +4°C° 0 mm 2 mps 743 mmHg 92%
    20:00 +3°C° 0 mm 2 mps 744 mmHg 96%
    21:00 +2°C° 0 mm 2 mps 744 mmHg 96%
    22:00 +2°C° 0 mm 2 mps 744 mmHg 96%
    23:00 +1°C° 0 mm 2 mps 744 mmHg 97%

    Day after tomorrow, 21 September, Saturday

    Time Temperature Precipitation Wind Pressure Humidity
    00:00 +1°C° 0 mm 2 mps 744 mmHg 97%
    01:00 -1°C° 0 mm 2 mps 744 mmHg 96%
    02:00 -1°C° 0 mm 2 mps 744 mmHg 96%
    03:00 -1°C° 0 mm 2 mps 743 mmHg 95%
    04:00 -1°C° 0 mm 2 mps 743 mmHg 95%
    05:00 -2°C° 0 mm 2 mps 743 mmHg 95%
    06:00 +1°C° 0 mm 2 mps 743 mmHg 90%
    07:00 +2°C° 0 mm 2 mps 743 mmHg 85%
    08:00 +3°C° 0 mm 2 mps 743 mmHg 80%
    09:00 +3°C° 0 mm 3 mps 742 mmHg 79%
    10:00 +4°C° 0 mm 3 mps 742 mmHg 78%
    11:00 +5°C° 0 mm 4 mps 741 mmHg 76%
    12:00 +5°C° 0 mm 4 mps 741 mmHg 79%
    13:00 +5°C° 0 mm 4 mps 740 mmHg 81%
    14:00 +5°C° 0 mm 4 mps 739 mmHg 83%
    15:00 +4°C° 0.3 mm 4 mps 738 mmHg 87%
    16:00 +4°C° 0.3 mm 4 mps 737 mmHg 91%
    17:00 +3°C° 0.3 mm 3 mps 736 mmHg 95%
    18:00 +4°C° 0.3 mm 3 mps 735 mmHg 95%
    19:00 +4°C° 0.3 mm 3 mps 735 mmHg 96%
    20:00 +4°C° 0.3 mm 3 mps 734 mmHg 96%
    21:00 +4°C° 0.3 mm 3 mps 733 mmHg 96%
    22:00 +5°C° 0.3 mm 3 mps 732 mmHg 97%
    23:00 +7°C° 0.3 mm 2 mps 731 mmHg 97%

    22 September, Sunday

    Time Temperature Precipitation Wind Pressure Humidity
    00:00 +7°C° 0.1 mm 3 mps 731 mmHg 95%
    01:00 +6°C° 0.1 mm 4 mps 731 mmHg 93%
    02:00 +6°C° 0.1 mm 5 mps 730 mmHg 92%
    03:00 +5°C° 0.1 mm 5 mps 730 mmHg 90%
    04:00 +3°C° 0.1 mm 5 mps 730 mmHg 88%
    05:00 +2°C° 0.1 mm 6 mps 731 mmHg 87%
    06:00 +2°C° 0.2 mm 6 mps 731 mmHg 87%
    07:00 0°C° 0.2 mm 7 mps 732 mmHg 87%
    08:00 0°C° 0.2 mm 7 mps 733 mmHg 87%
    09:00 +1°C° 0.1 mm 8 mps 734 mmHg 82%
    10:00 +1°C° 0.1 mm 8 mps 735 mmHg 77%
    11:00 +2°C° 0.1 mm 8 mps 736 mmHg 72%
    12:00 +2°C° 0 mm 8 mps 737 mmHg 66%
    13:00 +4°C° 0 mm 8 mps 737 mmHg 61%
    14:00 +5°C° 0 mm 8 mps 738 mmHg 56%
    15:00 +4°C° 0 mm 7 mps 739 mmHg 61%
    16:00 +3°C° 0 mm 7 mps 740 mmHg 65%
    17:00 +2°C° 0 mm 6 mps 740 mmHg 70%
    18:00 +2°C° 0 mm 5 mps 741 mmHg 73%
    19:00 +1°C° 0 mm 5 mps 742 mmHg 76%
    20:00 +1°C° 0 mm 4 mps 742 mmHg 79%
    21:00 +1°C° 0 mm 4 mps 743 mmHg 83%
    22:00 0°C° 0 mm 4 mps 743 mmHg 86%
    23:00 0°C° 0 mm 3 mps 743 mmHg 90%

    23 September, Monday

    Time Temperature Precipitation Wind Pressure Humidity
    00:00 0°C° 0 mm 3 mps 744 mmHg 91%
    01:00 -1°C° 0 mm 3 mps 744 mmHg 93%
    02:00 -1°C° 0 mm 3 mps 744 mmHg 94%
    03:00 -1°C° 0 mm 3 mps 744 mmHg 94%
    04:00 -1°C° 0 mm 3 mps 745 mmHg 94%
    05:00 -2°C° 0 mm 3 mps 745 mmHg 94%
    06:00 -1°C° 0 mm 3 mps 745 mmHg 88%
    07:00 +1°C° 0 mm 3 mps 745 mmHg 81%
    08:00 +2°C° 0 mm 3 mps 745 mmHg 75%
    09:00 +3°C° 0 mm 3 mps 745 mmHg 69%
    10:00 +4°C° 0 mm 3 mps 745 mmHg 63%
    11:00 +7°C° 0 mm 3 mps 745 mmHg 58%
    12:00 +7°C° 0 mm 3 mps 745 mmHg 56%
    13:00 +7°C° 0 mm 3 mps 745 mmHg 55%
    14:00 +7°C° 0 mm 4 mps 744 mmHg 53%
    15:00 +7°C° 0 mm 3 mps 744 mmHg 59%
    16:00 +6°C° 0 mm 2 mps 744 mmHg 64%
    17:00 +5°C° 0 mm 2 mps 744 mmHg 70%
    18:00 +4°C° 0 mm 2 mps 744 mmHg 75%
    19:00 +3°C° 0 mm 2 mps 744 mmHg 81%
    20:00 +1°C° 0 mm 2 mps 744 mmHg 86%
    21:00 +1°C° 0 mm 2 mps 744 mmHg 88%
    22:00 +1°C° 0 mm 2 mps 744 mmHg 90%
    23:00 -1°C° 0 mm 2 mps 744 mmHg 92%

    24 September, Tuesday

    Time Temperature Precipitation Wind Pressure Humidity
    00:00 -1°C° 0 mm 2 mps 744 mmHg 93%
    01:00 +1°C° 0 mm 1 mps 744 mmHg 94%
    02:00 0°C° 0 mm 1 mps 744 mmHg 95%
    03:00 0°C° 0 mm 1 mps 743 mmHg 95%
    04:00 0°C° 0 mm 1 mps 743 mmHg 95%
    05:00 0°C° 0 mm 1 mps 743 mmHg 95%
    06:00 0°C° 0 mm 0 mps 743 mmHg 88%
    07:00 +2°C° 0 mm 0 mps 743 mmHg 81%
    08:00 +4°C° 0 mm 0 mps 743 mmHg 73%
    09:00 +5°C° 0 mm 0 mps 743 mmHg 67%
    10:00 +8°C° 0 mm 1 mps 743 mmHg 60%
    11:00 +9°C° 0 mm 1 mps 743 mmHg 54%
    12:00 +9°C° 0 mm 1 mps 743 mmHg 54%
    13:00 +9°C° 0 mm 1 mps 742 mmHg 54%
    14:00 +8°C° 0 mm 1 mps 742 mmHg 54%
    15:00 +8°C° 0 mm 1 mps 742 mmHg 58%
    16:00 +7°C° 0 mm 1 mps 742 mmHg 63%
    17:00 +6°C° 0 mm 1 mps 742 mmHg 67%
    18:00 +5°C° 0 mm 2 mps 742 mmHg 72%
    19:00 +4°C° 0 mm 2 mps 742 mmHg 76%
    20:00 +3°C° 0 mm 2 mps 742 mmHg 80%
    21:00 +2°C° 0 mm 2 mps 742 mmHg 81%
    22:00 +2°C° 0 mm 2 mps 742 mmHg 82%
    23:00 +1°C° 0 mm 2 mps 742 mmHg 83%
    Show more